South Lake Tahoe, CA

1:39 PM PDT on April 26, 2017 (GMT -0700)
Lake Tahoe

Weather History for KTVL - September, 2011

Change the Weather History Date:

Friday, September 16, 2011

  Actual Average Record
Temperature  
Mean Temperature 55 °F 54 °F  
Max Temperature 69 °F 74 °F 85 °F (1981)
Min Temperature 41 °F 34 °F 22 °F (2006)
Degree Days  
Heating Degree Days 10 11  
Month to date heating degree days 92 147  
Since 1 July heating degree days 356 443  
Cooling Degree Days 0 0  
Month to date cooling degree days 0 0  
Year to date cooling degree days 19 30  
Growing Degree Days 8 (Base 50)    
Moisture  
Dew Point 39 °F    
Average Humidity 54    
Maximum Humidity 76    
Minimum Humidity 32    
Precipitation  
Precipitation T in - 1.45 in (1982)
Month to date precipitation 0.35  
Year to date precipitation 13.62  
Snow  
Snow 0.00 in - - ()
Month to date snowfall 0.0  
Snow Depth 0.00 in    
Sea Level Pressure  
Sea Level Pressure 29.93 in    
Wind  
Wind Speed 5 mph (SSW)    
Max Wind Speed 20 mph    
Max Gust Speed 26 mph    
Visibility 10 miles    
Events Rain    
T = Trace of Precipitation, MM = Missing Value Source: NWS Daily Summary

Daily Weather History Graph

Daily Weather History Graph

Search for Another Location

Airport or City:

Trip Planner

Search our weather history database for the weather conditions in past years. The results will help you decide how hot, cold, wet, or windy it might be!

Date:

Astronomy

Sep. 16, 2011 Rise Set
Actual Time 6:42 AM PDT 7:06 PM PDT
Civil Twilight 6:15 AM PDT 7:33 PM PDT
Nautical Twilight 5:44 AM PDT 8:04 PM PDT
Astronomical Twilight 5:11 AM PDT 8:36 PM PDT
Moon 9:03 PM PDT (9/16) 10:49 AM PDT (9/16)
Length of Visible Light 13h 18m
Length of Day
12h 24m
Waning Gibbous, 83% of the Moon is Illuminated
Sep 16
Waning Gibbous
Sep 20
Last Quarter
Sep 27
New
Oct 3
First Quarter
Oct 11
Full

Hourly Weather History & Observations

Time (PDT) Temp. Dew Point Humidity Pressure Visibility Wind Dir Wind Speed Gust Speed Precip Events Conditions
12:53 AM 57.0 °F 41.0 °F 55% 29.88 in 10.0 mi Variable 4.6 mph - N/A   Clear
1:53 AM 57.0 °F 41.0 °F 55% 29.87 in 10.0 mi Variable 3.5 mph - N/A   Partly Cloudy
2:53 AM 55.4 °F 42.8 °F 63% 30.04 in 10.0 mi Calm Calm - N/A   Mostly Cloudy
3:53 AM 53.1 °F 42.1 °F 66% 29.87 in 10.0 mi Calm Calm - N/A   Scattered Clouds
4:53 AM 52.0 °F 42.1 °F 69% 29.88 in 10.0 mi Calm Calm - N/A   Mostly Cloudy
5:53 AM 51.1 °F 43.0 °F 74% 29.88 in 10.0 mi Calm Calm - 0.00 in Rain Light Rain
6:53 AM 48.9 °F 42.1 °F 77% 29.90 in 10.0 mi Calm Calm - 0.00 in   Partly Cloudy
7:53 AM 50.0 °F 42.1 °F 74% 29.92 in 10.0 mi Calm Calm - N/A   Clear
8:53 AM 61.0 °F 42.1 °F 50% 29.89 in 10.0 mi South 6.9 mph - N/A   Clear
9:53 AM 64.0 °F 39.0 °F 40% 29.88 in 10.0 mi SSW 11.5 mph 17.3 mph N/A   Clear
10:53 AM 66.0 °F 35.1 °F 32% 29.88 in 10.0 mi SSW 12.7 mph 23.0 mph N/A   Clear
11:53 AM 68.0 °F 37.9 °F 33% 29.88 in 10.0 mi Variable 5.8 mph 24.2 mph N/A   Partly Cloudy
12:53 PM 66.9 °F 37.0 °F 33% 29.90 in 10.0 mi Variable 5.8 mph 17.3 mph N/A   Partly Cloudy
1:53 PM 69.1 °F 39.0 °F 33% 29.89 in 10.0 mi SSW 13.8 mph 24.2 mph N/A   Clear
2:53 PM 68.0 °F 39.2 °F 35% 30.06 in 10.0 mi Variable 4.6 mph 17.3 mph N/A   Partly Cloudy
3:53 PM 66.0 °F 37.0 °F 34% 29.90 in 10.0 mi SSW 11.5 mph 19.6 mph N/A   Clear
4:53 PM 66.9 °F 35.1 °F 31% 29.90 in 10.0 mi SSW 11.5 mph 19.6 mph N/A   Clear
5:53 PM 64.0 °F 36.0 °F 35% 29.91 in 10.0 mi SSW 9.2 mph 24.2 mph N/A   Clear
6:53 PM 62.1 °F 34.0 °F 35% 29.95 in 10.0 mi SW 5.8 mph 16.1 mph N/A   Clear
7:53 PM 60.1 °F 37.9 °F 44% 29.97 in 10.0 mi South 12.7 mph 19.6 mph N/A   Clear
8:53 PM 54.0 °F 39.0 °F 57% 29.97 in 10.0 mi Calm Calm - N/A   Clear
9:53 PM 50.0 °F 39.0 °F 66% 29.99 in 10.0 mi Calm Calm - N/A   Clear
10:53 PM 46.0 °F 37.9 °F 73% 30.01 in 10.0 mi Calm Calm - N/A   Clear
11:53 PM 44.1 °F 37.0 °F 76% 30.00 in 10.0 mi Calm Calm - N/A   Clear